Temp
17 16 16 18 18 19 20 19 21 22 23 24 24 24 25 26 26 26 27 27 27 27 28 27 26 26 26 27 28 29 28 26 24 20 20 20 20 19 18 18 17 17 17 17
16 16 17 17 18 18 18 18 19 20 21 21 23 23 24 24 24 25 25 26 26 26 27 27 26 25 25 26 27 29 28 28 24 21 20 20 20 18 18 17 17 17 17 17
16 17 17 17 17 17 18 18 19 19 20 21 21 21 23 24 24 24 25 26 26 26 26 26 26 26 25 25 26 27 27 27 24 21 19 19 18 17 17 17 17 17 17 17
16 18 16 17 17 18 17 19 19 19 19 20 21 21 24 24 24 24 24 25 25 26 26 26 26 26 25 25 24 26 26 26 22 19 20 20 22 20 19 17 17 17 17 17
15 16 16 17 17 18 17 19 19 19 19 19 20 20 22 24 24 25 25 25 25 26 26 26 26 26 25 24 23 24 23 21 20 19 20 20 21 21 19 19 17 17 17 17
15 17 16 17 18 18 19 18 18 18 19 17 19 19 22 24 25 25 26 27 26 26 26 25 25 24 23 22 21 20 20 19 18 19 19 20 20 19 19 19 18 18 18 18
15 15 16 17 17 18 17 17 16 16 16 17 20 19 21 24 24 24 25 26 26 26 26 25 25 25 24 22 21 18 19 19 19 19 19 19 19 19 19 19 19 17 18 18
11 12 15 16 16 17 17 17 17 16 17 18 20 19 22 24 25 24 25 25 25 25 26 25 24 23 23 21 19 18 20 19 19 19 19 19 19 20 20 20 19 19 20 19
10 14 16 16 17 18 17 16 19 17 18 19 20 21 23 23 24 25 25 25 25 25 24 24 22 21 21 19 18 20 20 19 19 19 18 19 19 19 19 18 18 18 18 18
12 11 15 14 16 17 16 19 16 17 17 17 20 20 22 23 24 24 24 24 24 23 22 21 20 20 19 18 19 19 19 19 19 19 19 19 19 18 18 18 18 18 18 17
13 12 14 15 14 11 14 14 18 18 18 18 19 21 22 22 22 22 23 23 23 21 21 19 19 19 18 19 19 19 19 19 19 19 18 18 18 18 18 18 18 17 17 17
13 12 12 14 16 15 15 15 16 17 17 18 18 20 22 21 21 21 22 23 23 19 18 18 18 18 19 20 20 19 19 20 19 19 19 18 18 18 18 18 17 17 17 17
12 12 12 14 14 15 14 15 15 15 16 16 18 20 22 22 22 21 22 23 23 19 18 18 18 19 20 20 20 20 20 20 19 19 19 18 18 18 17 17 17 17 17 17
12 12 12 12 13 13 13 14 15 14 15 17 17 18 20 21 20 20 22 23 24 21 19 18 18 20 21 20 20 20 20 20 20 20 19 18 18 18 17 17 17 17 17 17
12 11 12 12 12 13 13 13 14 14 15 14 17 18 19 19 19 20 21 22 24 22 19 19 18 20 20 20 20 20 20 20 20 20 19 18 17 17 17 17 17 17 17 18
9 10 11 11 13 13 13 14 14 14 14 15 15 16 18 18 19 21 22 23 23 23 20 19 18 20 21 21 20 20 20 20 20 20 19 18 18 18 17 17 17 17 18 18
9 10 10 11 13 13 12 14 15 15 15 15 15 17 18 18 19 21 21 21 22 23 22 20 19 21 21 20 20 20 20 20 20 20 19 18 18 18 17 17 17 18 17 17
9 10 11 11 10 10 15 15 15 14 16 17 16 17 18 18 20 20 20 20 21 22 22 21 21 21 20 20 20 20 20 20 20 20 20 19 18 18 18 18 18 17 18 18
9 9 10 10 11 13 14 12 11 11 13 16 16 17 18 18 19 19 21 22 22 23 22 22 21 21 20 20 20 20 20 20 21 21 20 19 19 18 18 18 18 18 18 17
8 9 9 11 10 11 13 12 10 10 12 16 17 17 17 18 16 20 22 21 22 22 22 22 21 20 20 20 20 19 20 21 21 21 20 19 19 19 18 18 17 18 18 17
10 9 9 9 10 11 10 9 9 11 14 12 14 15 16 15 16 19 19 21 22 22 22 21 21 21 20 19 19 20 20 21 21 20 20 19 19 19 18 17 17 17 17 16
10 10 10 10 10 11 7 8 10 11 9 10 11 15 15 15 16 16 18 21 21 21 22 22 22 21 20 19 20 21 21 21 20 20 20 19 18 19 18 17 17 16 16 16
10 8 9 9 10 8 7 5 6 7 7 8 10 14 14 16 17 18 20 21 20 21 22 22 22 21 20 20 20 21 21 20 20 20 19 19 18 18 18 18 17 16 16 16
8 7 7 8 9 8 9 9 10 11 11 12 13 14 15 16 16 18 19 20 20 19 22 22 21 22 21 20 20 21 20 20 20 20 18 19 18 18 18 18 18 16 16 16
11 10 9 8 9 9 10 9 10 10 11 11 13 13 13 16 16 17 18 18 18 18 19 21 21 22 22 21 21 21 20 20 20 20 18 19 19 18 18 17 17 17 17 17
12 9 9 9 10 10 10 10 10 10 10 10 10 10 11 13 14 16 16 17 17 18 19 19 20 21 22 21 21 21 21 21 20 20 19 20 20 19 18 17 15 16 16 16
Height
756 758 748 747 746 743 740 741 733 728 720 722 720 711 709 708 706 703 700 699 697 693 691 691 692 692 692 691 690 690 688 688 689 692 697 698 699 704 708 711 715 721 725 729
757 753 749 750 745 746 745 745 743 736 727 728 719 714 710 708 703 700 698 694 693 687 684 685 686 684 683 682 680 680 680 679 681 685 688 692 695 699 705 708 712 717 721 725
749 741 742 744 743 743 739 741 740 741 731 725 726 717 709 699 697 694 689 686 683 679 679 678 675 676 675 674 672 672 673 673 675 678 683 687 692 696 702 705 708 714 718 723
744 735 740 739 739 737 738 733 732 734 738 734 720 715 695 692 691 689 686 682 676 674 673 670 667 666 666 665 667 666 667 668 670 673 678 680 683 690 696 700 706 711 716 722
739 737 736 735 733 729 733 730 732 734 734 734 724 727 690 685 682 678 676 673 670 664 662 661 660 658 658 660 660 660 660 662 665 669 674 678 683 688 693 699 705 711 716 721
733 729 733 730 726 726 724 725 729 732 733 734 723 728 680 680 672 670 666 661 659 656 655 655 653 653 653 654 655 655 656 659 663 667 671 676 681 685 692 698 705 711 715 719
732 725 721 724 728 723 726 728 730 738 735 724 710 722 684 665 670 669 664 658 654 650 648 647 646 647 647 648 652 654 655 657 661 665 670 676 681 684 692 698 704 709 714 719
741 735 724 718 719 720 720 720 718 724 715 708 713 708 681 665 660 662 658 655 651 646 643 642 640 642 645 647 650 652 654 656 661 666 673 677 680 687 695 700 703 709 713 719
753 728 720 718 716 713 715 719 708 716 706 701 697 686 672 668 661 658 656 653 648 643 640 637 637 642 644 647 649 652 654 658 664 670 674 678 684 690 696 701 706 710 714 720
745 747 723 727 716 713 715 702 717 713 712 707 686 686 672 666 661 662 658 654 647 641 637 637 640 643 646 648 652 654 658 662 668 671 676 682 687 692 696 702 707 712 716 720
742 743 728 723 724 740 726 721 703 701 698 695 688 671 660 664 667 667 662 655 650 645 641 644 644 645 648 651 654 658 662 666 671 675 680 685 691 695 700 705 709 713 717 721
744 743 736 724 717 718 720 717 711 704 700 697 697 682 661 664 666 667 662 655 648 652 649 647 647 647 650 652 657 661 666 670 675 680 684 689 694 699 703 707 711 715 719 722
744 741 733 717 717 716 717 714 715 714 709 703 699 680 658 659 659 665 661 653 648 651 651 651 651 651 653 655 660 665 669 674 680 684 688 692 697 701 705 709 712 716 720 723
745 740 736 729 723 727 723 717 715 718 708 698 695 683 666 666 670 666 658 654 647 650 654 655 654 654 657 658 662 668 673 679 684 687 691 696 700 703 707 710 713 718 721 724
743 739 732 730 728 725 721 717 713 712 709 709 695 683 675 676 676 666 659 655 650 650 655 656 657 657 660 663 666 671 676 682 686 690 694 699 703 705 708 712 715 718 722 724
747 737 732 735 722 719 714 707 705 704 704 703 702 687 681 678 674 665 658 652 650 646 652 654 658 659 662 666 671 674 678 683 687 692 697 701 704 707 710 713 716 719 722 724
742 733 731 722 717 714 709 693 691 691 690 693 692 680 677 676 670 663 656 654 650 644 646 652 656 659 662 667 672 677 681 685 689 694 699 702 705 708 711 714 717 721 723 724
734 732 728 725 730 727 685 686 688 688 680 676 679 672 668 669 662 657 654 649 643 640 641 647 651 657 663 667 673 678 683 687 691 695 699 702 706 709 713 716 719 721 723 725
733 735 728 723 717 700 688 695 697 696 683 669 667 661 662 663 661 650 643 636 636 634 637 644 649 656 662 668 673 679 685 688 692 695 699 702 706 710 713 717 719 721 723 726
731 728 731 717 719 703 687 696 704 700 679 659 657 659 659 659 667 644 634 634 633 632 637 642 648 655 661 668 674 680 685 688 691 695 699 702 706 710 713 717 719 721 723 726
720 725 724 724 716 698 697 704 704 690 672 673 664 662 660 661 656 642 641 637 633 634 637 642 648 652 660 668 674 680 684 688 691 695 699 703 708 711 714 717 719 721 723 726
721 714 711 713 710 697 708 705 693 681 681 680 674 660 657 656 653 649 645 640 636 636 636 641 646 651 660 668 674 679 684 688 692 696 699 704 708 711 715 717 719 720 723 726
719 728 720 718 705 707 705 708 696 689 689 677 673 658 655 651 645 643 637 637 638 638 636 640 644 652 660 667 673 679 684 688 692 696 700 704 708 712 715 716 718 720 723 727
726 726 726 719 707 704 695 691 677 666 672 667 661 656 650 648 644 640 637 635 638 639 638 640 646 652 659 666 672 677 683 688 692 696 700 704 708 712 715 717 718 720 723 726
716 717 714 712 704 699 693 686 680 673 669 668 663 660 655 646 642 643 641 639 642 642 640 639 646 650 656 664 670 677 682 686 691 696 700 704 708 712 715 718 719 720 723 725
714 718 715 709 705 701 693 687 684 678 674 673 668 664 662 659 652 646 642 640 637 635 634 639 650 650 655 663 668 675 680 685 690 695 700 703 707 711 715 718 720 721 724 726
Wind_Speed
1 8 16 18 19 20 16 9 21 18 10 21 25 28 24 21 23 25 23 22 22 22 20 24 24 26 26 29 32 29 24 17 11 11 13 16 19 17 17 18 18 20 20 21
5 15 14 12 13 17 21 20 12 9 10 7 15 21 18 17 19 20 22 22 23 23 21 19 23 25 26 29 33 31 24 19 14 14 14 9 13 13 14 14 16 18 19 19
15 15 7 10 16 18 17 22 21 11 10 14 14 23 23 21 20 21 23 24 23 22 21 19 19 21 23 22 30 25 21 18 15 15 14 12 12 9 12 15 17 17 17 17
13 13 12 15 12 18 18 10 13 19 15 13 4 12 13 12 17 17 18 19 21 21 20 21 19 17 22 25 18 21 20 18 14 17 18 20 14 12 10 14 15 17 16 16
19 14 10 15 13 12 17 15 11 6 9 12 20 12 19 14 22 19 17 19 22 22 22 22 21 20 25 18 19 20 14 12 12 17 18 18 12 9 12 15 17 16 15 15
22 20 14 16 13 9 10 16 17 15 11 14 18 11 23 18 21 20 23 20 18 18 17 17 18 17 19 12 9 7 8 10 14 17 16 16 15 14 16 18 19 17 16 15
13 16 11 16 16 11 9 11 9 11 13 18 6 13 23 3 9 12 9 13 16 14 12 12 11 9 10 7 6 6 11 14 16 16 15 15 15 16 19 23 21 19 17 16
4 4 3 12 20 18 14 15 9 16 14 19 13 12 8 9 10 11 12 14 13 13 12 12 10 6 5 6 7 10 14 17 17 16 16 15 16 17 20 21 21 16 17 15
5 2 6 5 6 13 13 10 19 6 4 11 12 19 17 16 16 10 11 10 15 15 15 10 6 5 6 9 11 14 17 17 17 18 17 17 17 19 17 18 17 17 14 15
2 6 2 7 9 4 8 5 10 9 6 8 9 18 9 7 7 3 12 17 18 18 10 2 6 8 11 12 15 16 18 19 19 19 19 18 17 17 18 17 16 16 15 13
6 3 3 5 6 7 9 7 6 7 11 3 3 3 2 6 11 11 14 17 17 15 4 4 8 10 14 16 17 18 20 21 20 20 19 19 17 17 17 17 16 15 14 12
4 3 5 10 8 7 7 4 9 8 17 10 8 5 4 12 10 15 18 18 20 11 4 2 7 11 15 18 19 19 20 20 20 21 21 21 20 19 18 16 14 13 13 13
3 1 6 7 4 4 1 3 2 5 6 12 12 6 9 7 19 17 21 21 18 10 4 1 6 9 12 17 19 20 21 21 20 21 21 19 17 16 15 14 13 13 14 13
5 6 10 9 8 8 10 10 8 5 8 13 16 23 26 20 19 22 23 18 18 9 2 3 6 9 11 17 20 21 21 21 20 21 20 18 15 14 14 13 14 14 13 12
4 9 11 14 15 14 17 19 17 14 14 11 13 24 23 17 19 21 19 17 17 9 5 6 6 9 10 15 20 22 21 20 20 19 17 15 14 14 13 13 13 12 11 8
7 7 10 12 16 17 20 20 20 19 18 18 20 29 20 22 21 19 22 19 18 12 8 10 9 12 13 16 18 21 20 20 18 16 15 14 13 12 13 13 13 11 9 7
4 4 5 11 8 9 13 22 24 19 17 16 20 24 22 20 18 17 17 16 19 14 9 12 13 13 13 18 19 19 19 18 15 14 13 12 12 12 12 12 13 11 8 10
5 9 6 3 2 7 6 1 6 13 16 17 20 24 21 21 19 19 18 21 20 11 10 13 13 13 18 20 19 18 16 16 15 12 11 11 12 13 13 14 12 10 10 10
12 5 3 3 7 12 16 3 6 4 10 10 17 22 17 17 17 23 19 19 14 10 10 13 17 19 19 20 19 18 16 15 13 11 10 12 13 15 14 13 10 10 10 11
9 12 5 5 5 5 4 5 6 8 10 13 18 15 16 14 10 12 13 7 7 9 11 13 19 20 20 20 20 17 16 14 12 10 11 13 14 13 13 13 10 9 9 9
2 3 11 9 5 7 3 8 7 4 2 13 6 6 7 9 10 12 14 6 5 10 13 18 20 19 20 20 19 17 16 14 11 8 13 14 13 13 12 11 9 9 9 9
3 3 2 5 6 6 7 9 5 6 16 12 15 8 10 13 17 19 18 8 6 9 14 20 18 19 20 20 19 17 16 13 11 10 14 14 13 11 11 11 9 7 8 9
2 2 2 3 3 6 11 11 18 20 18 20 14 9 12 13 14 13 12 14 7 5 12 18 18 20 20 20 19 17 14 12 12 12 15 14 13 11 10 10 9 7 7 8
4 5 3 3 3 11 12 16 15 2 9 1 5 4 3 2 4 4 4 7 8 6 11 16 16 17 18 20 19 18 15 14 14 13 17 14 12 11 9 7 7 7 9 8
4 6 5 5 7 11 6 13 14 13 15 15 11 14 12 7 5 4 2 5 4 4 10 16 16 18 20 22 20 17 15 16 15 14 17 14 11 10 10 7 6 5 6 6
6 4 3 2 10 6 9 13 14 14 16 14 14 16 14 11 7 6 6 6 7 9 9 11 12 15 18 21 21 18 17 17 17 15 14 13 12 10 9 9 8 8 7 7
Wind_Direction
205 247 231 234 232 241 260 313 256 252 226 225 228 245 244 246 252 259 263 264 266 266 274 273 269 271 270 275 276 282 282 293 264 212 211 219 214 209 208 203 198 205 213 209
210 249 260 261 248 240 245 252 260 273 259 245 246 256 257 253 253 258 264 265 265 271 272 269 268 267 269 267 271 279 286 294 261 214 208 201 188 202 202 190 199 202 205 202
247 256 262 249 242 241 237 241 242 254 287 275 274 271 259 253 252 257 259 262 266 264 270 273 269 265 264 263 268 271 292 286 256 221 186 162 145 145 182 190 191 195 193 191
249 254 241 246 245 236 240 229 233 234 243 249 213 271 254 245 255 246 257 257 259 262 259 256 260 262 259 262 270 282 286 274 243 206 191 185 187 170 189 178 182 184 181 179
268 270 248 238 239 224 241 229 248 262 256 258 253 269 265 247 261 258 258 259 256 254 254 263 261 256 260 266 278 279 265 237 207 193 191 185 186 165 156 159 158 163 165 165
268 259 247 244 250 233 246 212 218 240 250 246 243 239 275 253 261 265 255 263 265 270 263 255 261 263 264 269 263 251 212 190 181 181 183 185 174 154 150 152 150 153 152 152
302 249 240 226 250 241 229 215 190 211 217 238 238 213 242 157 309 283 271 284 288 281 273 261 262 259 252 244 238 209 183 166 166 165 167 172 165 153 152 153 150 147 146 152
290 335 202 215 220 229 223 213 215 213 212 236 207 231 245 260 255 293 282 285 292 291 281 274 259 237 229 199 173 167 157 146 148 150 153 152 144 144 151 147 151 151 151 157
303 309 319 279 288 224 210 210 226 297 244 224 200 243 267 268 268 283 320 321 325 315 308 289 201 181 170 158 153 148 137 134 141 144 139 133 140 146 147 141 146 148 147 155
221 292 259 305 350 294 241 218 189 215 223 207 212 233 235 186 246 356 358 346 337 329 312 178 166 156 152 142 136 132 132 132 136 131 130 135 139 139 140 142 141 143 147 152
299 240 290 288 179 227 298 254 210 247 237 279 270 164 214 120 68 28 358 357 346 344 352 159 155 146 137 137 132 129 127 126 125 129 131 130 130 131 135 139 141 144 149 152
331 307 289 283 289 263 266 290 238 244 224 240 284 273 125 105 39 360 351 349 355 351 346 171 150 140 145 134 132 128 129 125 128 129 128 125 126 130 131 136 142 148 147 144
343 274 308 302 195 109 133 263 270 290 267 253 244 247 156 284 329 337 336 338 344 348 356 141 146 147 144 134 132 131 129 127 130 128 124 124 127 133 136 139 143 143 142 148
268 248 252 259 302 319 297 285 267 260 259 247 237 266 268 296 320 325 327 338 341 337 276 164 153 153 147 139 137 134 130 133 134 132 131 129 134 137 136 137 140 143 149 155
253 254 246 260 274 276 275 275 272 259 250 254 261 257 269 288 307 316 314 321 326 320 227 182 168 154 149 144 143 141 137 141 140 137 136 135 138 138 138 139 144 148 154 164
218 238 217 250 258 264 270 267 263 260 258 253 253 263 273 285 287 296 300 306 313 318 227 191 174 168 157 154 151 145 144 147 146 141 141 146 144 145 147 147 147 151 154 151
231 203 215 256 268 280 273 251 246 254 250 243 244 254 260 269 277 284 295 301 301 300 217 191 176 175 161 156 154 153 149 151 151 148 147 149 150 151 147 149 154 159 158 155
210 202 230 276 309 253 275 216 281 265 268 263 237 245 250 252 267 284 289 285 286 272 205 188 174 166 163 157 159 156 157 156 157 156 154 156 159 153 151 145 149 155 151 160
206 207 236 235 226 279 285 39 335 353 286 267 224 238 244 259 283 285 273 271 260 240 193 183 170 163 160 161 160 160 165 164 165 167 163 160 157 155 155 155 153 153 155 158
219 210 213 213 246 262 40 120 14 327 273 226 226 238 242 250 258 271 294 255 234 184 181 170 162 158 158 163 163 163 172 174 178 171 165 157 155 157 158 160 159 165 156 152
162 181 223 231 261 271 66 342 327 248 15 326 311 267 243 235 237 274 317 273 180 167 173 165 161 154 160 161 165 171 176 185 182 170 161 155 157 159 162 162 164 166 154 153
300 304 220 218 236 267 27 329 237 330 311 304 299 270 250 252 261 264 269 240 166 173 162 166 159 151 160 163 167 175 183 182 173 162 157 154 156 159 163 165 166 166 153 152
299 270 288 253 294 297 290 249 253 259 264 279 282 273 259 255 261 263 241 214 194 184 168 166 157 150 160 167 176 181 184 173 167 161 153 155 156 162 164 162 156 148 153 159
240 206 243 301 264 288 297 328 330 48 209 285 41 28 8 293 285 292 231 189 192 231 177 157 151 160 157 170 180 190 177 170 167 160 154 154 159 162 161 155 149 152 156 160
279 307 279 253 278 317 304 339 353 8 43 28 40 36 24 13 12 352 89 100 129 200 167 154 166 175 168 174 182 188 177 172 169 162 159 156 161 163 152 142 145 148 137 150
341 331 323 330 305 302 324 340 350 7 29 17 29 21 19 22 19 28 43 52 47 65 103 138 189 172 172 179 178 185 179 175 168 161 162 166 165 164 159 151 137 145 149 143